STARLINK-1320 (45572 NORAD) Tracking and Keplerian Element Data

This shows tracking and keplerian element data for the satellite.

Feedback or suggestion? Click here.




ElementValue
Catalog45572
NameSTARLINK-1320
Epoch Orbit626
Epoch Day149.16667824
Epoch Year2020
RAAN224.9359
Inclination52.9988
Eccentricity0.000131
Argument of Perigee72.4372
Mean Anonmoly134.1102
Mean Motion15.62767943
Decay Rate0.00046552
L11 45572U 20025AT 20149.16667824 .00046552 00000-0 51101-3 0 9991
L22 45572 52.9988 224.9359 0001310 72.4372 134.1102 15.62767943 6266

Live tracking and technical data element details for STARLINK-1320 (NORAD 45572). STARLINK-1320 can be tracked NOW for your location showing map with azimuth and elevation plus other details from your city location.

Track the satellite on the map from your city or location and see movement details for azimuth, elevation, latitude, longitude, range, height, and movement on the map or in text.







IsCatalogInMostPopularTable: catalog: 45572, numindb: 8
Update: records affected: 1



GetName: 45572 STARLINK-1320

Hit Count: updated at: Sat, 30 May 2020 16:00:04 GMT